Hourly Data Report for July 19, 2021

BONAVISTA
NEWFOUNDLAND
Current Station Operator: ECCC - MSC

48°40'02.000" N
53°06'51.000" W
25.60 m
8400601
71178
AVA

Download Data

Hourly Data (July 2021)
Hourly Data Report for July 19, 2021
TIME
LST
Temp Definition
°C
Dew Point Definition
°C
Rel Hum Definition
%
Precip. Amount Definition
mm

Wind Dir Definition
10's deg

Wind Spd Definition
km/h
Visibility Definition
km
Stn Press Definition
kPa
Hmdx Definition


Wind Chill Definition


Weather Definition


00:30 15.4 12.0 80 0.0 18 11   101.32     LegendNANA
01:30 15.3 11.6 78 0.0 18 14   101.32     LegendNANA
02:30 14.4 11.3 82 0.0 24 9   101.34     LegendNANA
03:30 13.6 11.4 87 0.0 25 11   101.37     LegendNANA
04:30 12.9 11.4 91 0.0 25 6   101.40     LegendNANA
05:30 13.3 11.8 90 0.0 22 8   101.45     LegendNANA
06:30 15.1 12.3 83 0.0 24 8   101.50     LegendNANA
07:30 17.3 12.4 73 0.0 25 5   101.53     LegendNANA
08:30 19.5 12.9 66 0.0 35 3   101.56     LegendNANA
09:30 19.7 12.5 63 0.0 5 9   101.57     LegendNANA
10:30 24.2 12.0 46 0.0 9 14   101.54 26   LegendNANA
11:30 25.0 10.8 41 0.0 14 22   101.52 27   LegendNANA
12:30 25.3 10.9 40 0.0 17 20   101.50 27   LegendNANA
13:30 22.5 12.3 53 0.0 16 32   101.47 25   LegendNANA
14:30 21.1 12.0 56 0.0 16 35   101.45     LegendNANA
15:30 20.7 12.1 58 0.0 16 32   101.44     LegendNANA
16:30 20.0 11.8 60 0.0 16 40   101.42     LegendNANA
17:30 19.5 11.9 61 0.0 16 39   101.41     LegendNANA
18:30 17.8 11.7 68 0.0 16 42   101.38     LegendNANA
19:30 17.0 11.8 72 0.0 17 37   101.39     LegendNANA
20:30 15.9 11.8 77 0.0 16 40   101.42     LegendNANA
21:30 15.2 11.6 79 0.0 17 33   101.42     LegendNANA
22:30 14.1 11.7 85 0.0 16 31   101.39     LegendNANA
23:30 14.2 11.8 85 0.0 17 31   101.35     LegendNANA

Notes on Data Quality.

Legend

  • E = Estimated
  • M = Missing
  • NA = Not Available*
  • [empty] = Indicates an unobserved value
Date modified: